Year,Month,Day,Hour,Minute,Value (Times are PST for temperature in C)
2013,08,24,00,00,15.80
2013,08,24,00,01,15.80
2013,08,24,00,02,15.80
2013,08,24,00,03,15.80
2013,08,24,00,04,15.80
2013,08,24,00,05,15.80
2013,08,24,00,06,15.80
2013,08,24,00,07,15.80
2013,08,24,00,08,15.80
2013,08,24,00,09,15.80
2013,08,24,00,10,15.80
2013,08,24,00,11,15.80
2013,08,24,00,12,15.80
2013,08,24,00,13,15.80
2013,08,24,00,14,15.80
2013,08,24,00,15,15.80
2013,08,24,00,16,15.80
2013,08,24,00,17,15.80
2013,08,24,00,18,15.80
2013,08,24,00,19,15.80
2013,08,24,00,20,15.80
2013,08,24,00,21,15.80
2013,08,24,00,22,15.80
2013,08,24,00,23,15.80
2013,08,24,00,24,15.80
2013,08,24,00,25,15.80
2013,08,24,00,26,15.80
2013,08,24,00,27,15.80
2013,08,24,00,28,15.80
2013,08,24,00,29,15.80
2013,08,24,00,30,15.80
2013,08,24,00,31,15.80
2013,08,24,00,32,15.80
2013,08,24,00,33,15.80
2013,08,24,00,34,15.80
2013,08,24,00,35,15.80
2013,08,24,00,36,15.80
2013,08,24,00,37,15.80
2013,08,24,00,38,15.80
2013,08,24,00,39,15.80
2013,08,24,00,40,15.80
2013,08,24,00,41,15.80
2013,08,24,00,42,15.80
2013,08,24,00,43,15.80
2013,08,24,00,44,15.80
2013,08,24,00,45,15.80
2013,08,24,00,46,15.80
2013,08,24,00,47,15.80
2013,08,24,00,48,15.80
2013,08,24,00,49,15.80
2013,08,24,00,50,15.80
2013,08,24,00,51,15.80
2013,08,24,00,52,15.80
2013,08,24,00,53,15.80
2013,08,24,00,54,15.80
2013,08,24,00,55,15.80
2013,08,24,00,56,15.80
2013,08,24,00,57,15.80
2013,08,24,00,58,15.80
2013,08,24,00,59,15.80
2013,08,24,01,00,15.80
2013,08,24,01,01,15.80
2013,08,24,01,02,15.80
2013,08,24,01,03,15.80
2013,08,24,01,04,15.80
2013,08,24,01,05,15.80
2013,08,24,01,06,15.80
2013,08,24,01,07,15.80
2013,08,24,01,08,15.80
2013,08,24,01,09,15.80
2013,08,24,01,10,15.80
2013,08,24,01,11,15.80
2013,08,24,01,12,15.80
2013,08,24,01,13,15.70
2013,08,24,01,14,15.70
2013,08,24,01,15,15.70
2013,08,24,01,16,15.70
2013,08,24,01,17,15.70
2013,08,24,01,18,15.70
2013,08,24,01,19,15.70
2013,08,24,01,20,15.70
2013,08,24,01,21,15.70
2013,08,24,01,22,15.70
2013,08,24,01,23,15.70
2013,08,24,01,24,15.70
2013,08,24,01,25,15.70
2013,08,24,01,26,15.70
2013,08,24,01,27,15.70
2013,08,24,01,28,15.70
2013,08,24,01,29,15.70
2013,08,24,01,30,15.60
2013,08,24,01,31,15.60
2013,08,24,01,32,15.60
2013,08,24,01,33,15.60
2013,08,24,01,34,15.60
2013,08,24,01,35,15.60
2013,08,24,01,36,15.50
2013,08,24,01,37,15.50
2013,08,24,01,38,15.50
2013,08,24,01,39,15.50
2013,08,24,01,40,15.50
2013,08,24,01,41,15.40
2013,08,24,01,42,15.40
2013,08,24,01,43,15.40
2013,08,24,01,44,15.40
2013,08,24,01,45,15.40
2013,08,24,01,46,15.40
2013,08,24,01,47,15.40
2013,08,24,01,48,15.40
2013,08,24,01,49,15.30
2013,08,24,01,50,15.30
2013,08,24,01,51,15.30
2013,08,24,01,52,15.30
2013,08,24,01,53,15.30
2013,08,24,01,54,15.30
2013,08,24,01,55,15.40
2013,08,24,01,56,15.30
2013,08,24,01,57,15.30
2013,08,24,01,58,15.30
2013,08,24,01,59,15.30
2013,08,24,02,00,15.30
2013,08,24,02,01,15.30
2013,08,24,02,02,15.30
2013,08,24,02,03,15.30
2013,08,24,02,04,15.30
2013,08,24,02,05,15.20
2013,08,24,02,06,15.20
2013,08,24,02,07,15.20
2013,08,24,02,08,15.20
2013,08,24,02,09,15.20
2013,08,24,02,10,15.20
2013,08,24,02,11,15.20
2013,08,24,02,12,15.20
2013,08,24,02,13,15.20
2013,08,24,02,14,15.20
2013,08,24,02,15,15.20
2013,08,24,02,16,15.20
2013,08,24,02,17,15.10
2013,08,24,02,18,15.10
2013,08,24,02,19,15.10
2013,08,24,02,20,15.10
2013,08,24,02,21,15.10
2013,08,24,02,22,15.10
2013,08,24,02,23,15.10
2013,08,24,02,24,15.10
2013,08,24,02,25,15.10
2013,08,24,02,26,15.00
2013,08,24,02,27,15.00
2013,08,24,02,28,15.00
2013,08,24,02,29,15.00
2013,08,24,02,30,15.00
2013,08,24,02,31,15.00
2013,08,24,02,32,15.00
2013,08,24,02,33,15.00
2013,08,24,02,34,15.00
2013,08,24,02,35,15.00
2013,08,24,02,36,15.00
2013,08,24,02,37,15.00
2013,08,24,02,38,15.00
2013,08,24,02,39,15.00
2013,08,24,02,40,15.00
2013,08,24,02,41,15.00
2013,08,24,02,42,15.00
2013,08,24,02,43,15.00
2013,08,24,02,44,15.00
2013,08,24,02,45,15.00
2013,08,24,02,46,15.00
2013,08,24,02,47,15.00
2013,08,24,02,48,15.00
2013,08,24,02,49,15.00
2013,08,24,02,50,15.00
2013,08,24,02,51,15.00
2013,08,24,02,52,15.00
2013,08,24,02,53,15.00
2013,08,24,02,54,15.00
2013,08,24,02,55,15.00
2013,08,24,02,56,15.00
2013,08,24,02,57,15.00
2013,08,24,02,58,15.00
2013,08,24,02,59,15.00
2013,08,24,03,00,15.00
2013,08,24,03,01,15.00
2013,08,24,03,02,15.00
2013,08,24,03,03,15.00
2013,08,24,03,04,15.00
2013,08,24,03,05,15.00
2013,08,24,03,06,15.00
2013,08,24,03,07,15.00
2013,08,24,03,08,15.00
2013,08,24,03,09,15.00
2013,08,24,03,10,15.00
2013,08,24,03,11,15.00
2013,08,24,03,12,15.00
2013,08,24,03,13,15.00
2013,08,24,03,14,14.90
2013,08,24,03,15,14.90
2013,08,24,03,16,14.80
2013,08,24,03,17,14.80
2013,08,24,03,18,14.80
2013,08,24,03,19,14.70
2013,08,24,03,20,14.70
2013,08,24,03,21,14.70
2013,08,24,03,22,14.70
2013,08,24,03,23,14.70
2013,08,24,03,24,14.70
2013,08,24,03,25,14.60
2013,08,24,03,26,14.60
2013,08,24,03,27,14.60
2013,08,24,03,28,14.50
2013,08,24,03,29,14.50
2013,08,24,03,30,14.40
2013,08,24,03,31,14.40
2013,08,24,03,32,14.40
2013,08,24,03,33,14.40
2013,08,24,03,34,14.40
2013,08,24,03,35,14.40
2013,08,24,03,36,14.40
2013,08,24,03,37,14.40
2013,08,24,03,38,14.40
2013,08,24,03,39,14.40
2013,08,24,03,40,14.50
2013,08,24,03,41,14.50
2013,08,24,03,42,14.60
2013,08,24,03,43,14.70
2013,08,24,03,44,14.70
2013,08,24,03,45,14.70
2013,08,24,03,46,14.80
2013,08,24,03,47,14.80
2013,08,24,03,48,14.80
2013,08,24,03,49,14.90
2013,08,24,03,50,14.90
2013,08,24,03,51,14.90
2013,08,24,03,52,14.90
2013,08,24,03,53,14.90
2013,08,24,03,54,14.90
2013,08,24,03,55,14.90
2013,08,24,03,56,14.90
2013,08,24,03,57,14.90
2013,08,24,03,58,14.90
2013,08,24,03,59,14.90
2013,08,24,04,00,14.80
2013,08,24,04,01,14.80
2013,08,24,04,02,14.80
2013,08,24,04,03,14.80
2013,08,24,04,04,14.80
2013,08,24,04,05,14.80
2013,08,24,04,06,14.80
2013,08,24,04,07,14.80
2013,08,24,04,08,14.80
2013,08,24,04,09,14.80
2013,08,24,04,10,14.80
2013,08,24,04,11,14.70
2013,08,24,04,12,14.70
2013,08,24,04,13,14.70
2013,08,24,04,14,14.70
2013,08,24,04,15,14.70
2013,08,24,04,16,14.70
2013,08,24,04,17,14.70
2013,08,24,04,18,14.70
2013,08,24,04,19,14.70
2013,08,24,04,20,14.70
2013,08,24,04,21,14.70
2013,08,24,04,22,14.60
2013,08,24,04,23,14.60
2013,08,24,04,24,14.60
2013,08,24,04,25,14.60
2013,08,24,04,26,14.60
2013,08,24,04,27,14.60
2013,08,24,04,28,14.50
2013,08,24,04,29,14.50
2013,08,24,04,30,14.40
2013,08,24,04,31,14.40
2013,08,24,04,32,14.40
2013,08,24,04,33,14.40
2013,08,24,04,34,14.30
2013,08,24,04,35,14.30
2013,08,24,04,36,14.30
2013,08,24,04,37,14.20
2013,08,24,04,38,14.20
2013,08,24,04,39,14.20
2013,08,24,04,40,14.10
2013,08,24,04,41,14.10
2013,08,24,04,42,14.00
2013,08,24,04,43,14.00
2013,08,24,04,44,13.90
2013,08,24,04,45,13.90
2013,08,24,04,46,13.80
2013,08,24,04,47,13.80
2013,08,24,04,48,13.80
2013,08,24,04,49,13.80
2013,08,24,04,50,13.70
2013,08,24,04,51,13.70
2013,08,24,04,52,13.70
2013,08,24,04,53,13.70
2013,08,24,04,54,13.60
2013,08,24,04,55,13.60
2013,08,24,04,56,13.60
2013,08,24,04,57,13.60
2013,08,24,04,58,13.60
2013,08,24,04,59,13.60
2013,08,24,05,00,13.50
2013,08,24,05,01,13.50
2013,08,24,05,02,13.50
2013,08,24,05,03,13.50
2013,08,24,05,04,13.50
2013,08,24,05,05,13.40
2013,08,24,05,06,13.40
2013,08,24,05,07,13.40
2013,08,24,05,08,13.40
2013,08,24,05,09,13.40
2013,08,24,05,10,13.40
2013,08,24,05,11,13.40
2013,08,24,05,12,13.40
2013,08,24,05,13,13.30
2013,08,24,05,14,13.30
2013,08,24,05,15,13.30
2013,08,24,05,16,13.30
2013,08,24,05,17,13.30
2013,08,24,05,18,13.30
2013,08,24,05,19,13.30
2013,08,24,05,20,13.30
2013,08,24,05,21,13.30
2013,08,24,05,22,13.30
2013,08,24,05,23,13.30
2013,08,24,05,24,13.30
2013,08,24,05,25,13.30
2013,08,24,05,26,13.30
2013,08,24,05,27,13.30
2013,08,24,05,28,13.30
2013,08,24,05,29,13.30
2013,08,24,05,30,13.30
2013,08,24,05,31,13.20
2013,08,24,05,32,13.30
2013,08,24,05,33,13.30
2013,08,24,05,34,13.30
2013,08,24,05,35,13.30
2013,08,24,05,36,13.30
2013,08,24,05,37,13.30
2013,08,24,05,38,13.30
2013,08,24,05,39,13.30
2013,08,24,05,40,13.30
2013,08,24,05,41,13.30
2013,08,24,05,42,13.30
2013,08,24,05,43,13.30
2013,08,24,05,44,13.30
2013,08,24,05,45,13.30
2013,08,24,05,46,13.30
2013,08,24,05,47,13.30
2013,08,24,05,48,13.30
2013,08,24,05,49,13.30
2013,08,24,05,50,13.30
2013,08,24,05,51,13.30
2013,08,24,05,52,13.30
2013,08,24,05,53,13.30
2013,08,24,05,54,13.30
2013,08,24,05,55,13.30
2013,08,24,05,56,13.30
2013,08,24,05,57,13.30
2013,08,24,05,58,13.30
2013,08,24,05,59,13.30
2013,08,24,06,00,13.30
2013,08,24,06,01,13.30
2013,08,24,06,02,13.30
2013,08,24,06,03,13.30
2013,08,24,06,04,13.30
2013,08,24,06,05,13.30
2013,08,24,06,06,13.30
2013,08,24,06,07,13.30
2013,08,24,06,08,13.30
2013,08,24,06,09,13.30
2013,08,24,06,10,13.30
2013,08,24,06,11,13.30
2013,08,24,06,12,13.30
2013,08,24,06,13,13.30
2013,08,24,06,14,13.30
2013,08,24,06,15,13.30
2013,08,24,06,16,13.30
2013,08,24,06,17,13.40
2013,08,24,06,18,13.40
2013,08,24,06,19,13.40
2013,08,24,06,20,13.40
2013,08,24,06,21,13.40
2013,08,24,06,22,13.40
2013,08,24,06,23,13.40
2013,08,24,06,24,13.40
2013,08,24,06,25,13.40
2013,08,24,06,26,13.40
2013,08,24,06,27,13.40
2013,08,24,06,28,13.40
2013,08,24,06,29,13.40
2013,08,24,06,30,13.40
2013,08,24,06,31,13.40
2013,08,24,06,32,13.40
2013,08,24,06,33,13.40
2013,08,24,06,34,13.40
2013,08,24,06,35,13.40
2013,08,24,06,36,13.40
2013,08,24,06,37,13.40
2013,08,24,06,38,13.40
2013,08,24,06,39,13.40
2013,08,24,06,40,13.40
2013,08,24,06,41,13.40
2013,08,24,06,42,13.40
2013,08,24,06,43,13.40
2013,08,24,06,44,13.50
2013,08,24,06,45,13.50
2013,08,24,06,46,13.50
2013,08,24,06,47,13.50
2013,08,24,06,48,13.50
2013,08,24,06,49,13.50
2013,08,24,06,50,13.50
2013,08,24,06,51,13.60
2013,08,24,06,52,13.60
2013,08,24,06,53,13.60
2013,08,24,06,54,13.60
2013,08,24,06,55,13.60
2013,08,24,06,56,13.60
2013,08,24,06,57,13.60
2013,08,24,06,58,13.70
2013,08,24,06,59,13.70
2013,08,24,07,00,13.70
2013,08,24,07,01,13.70
2013,08,24,07,02,13.70
2013,08,24,07,03,13.80
2013,08,24,07,04,13.80
2013,08,24,07,05,13.80
2013,08,24,07,06,13.80
2013,08,24,07,07,13.80
2013,08,24,07,08,13.90
2013,08,24,07,09,13.90
2013,08,24,07,10,13.90
2013,08,24,07,11,13.90
2013,08,24,07,12,13.90
2013,08,24,07,13,14.00
2013,08,24,07,14,14.00
2013,08,24,07,15,14.00
2013,08,24,07,16,14.10
2013,08,24,07,17,14.10
2013,08,24,07,18,14.10
2013,08,24,07,19,14.10
2013,08,24,07,20,14.20
2013,08,24,07,21,14.20
2013,08,24,07,22,14.20
2013,08,24,07,23,14.20
2013,08,24,07,24,14.30
2013,08,24,07,25,14.30
2013,08,24,07,26,14.40
2013,08,24,07,27,14.40
2013,08,24,07,28,14.40
2013,08,24,07,29,14.40
2013,08,24,07,30,14.40
2013,08,24,07,31,14.50
2013,08,24,07,32,14.50
2013,08,24,07,33,14.50
2013,08,24,07,34,14.60
2013,08,24,07,35,14.60
2013,08,24,07,36,14.60
2013,08,24,07,37,14.60
2013,08,24,07,38,14.70
2013,08,24,07,39,14.70
2013,08,24,07,40,14.70
2013,08,24,07,41,14.70
2013,08,24,07,42,14.80
2013,08,24,07,43,14.80
2013,08,24,07,44,14.80
2013,08,24,07,45,14.90
2013,08,24,07,46,14.90
2013,08,24,07,47,14.90
2013,08,24,07,48,15.00
2013,08,24,07,49,15.00
2013,08,24,07,50,15.00
2013,08,24,07,51,15.00
2013,08,24,07,52,15.00
2013,08,24,07,53,15.00
2013,08,24,07,54,15.00
2013,08,24,07,55,15.00
2013,08,24,07,56,15.00
2013,08,24,07,57,15.00
2013,08,24,07,58,15.00
2013,08,24,07,59,15.00
2013,08,24,08,00,15.00
2013,08,24,08,01,15.10
2013,08,24,08,02,15.10
2013,08,24,08,03,15.20
2013,08,24,08,04,15.20
2013,08,24,08,05,15.20
2013,08,24,08,06,15.20
2013,08,24,08,07,15.20
2013,08,24,08,08,15.20
2013,08,24,08,09,15.20
2013,08,24,08,10,15.30
2013,08,24,08,11,15.30
2013,08,24,08,12,15.30
2013,08,24,08,13,15.30
2013,08,24,08,14,15.40
2013,08,24,08,15,15.40
2013,08,24,08,16,15.40
2013,08,24,08,17,15.40
2013,08,24,08,18,15.40
2013,08,24,08,19,15.40
2013,08,24,08,20,15.40
2013,08,24,08,21,15.40
2013,08,24,08,22,15.40
2013,08,24,08,23,15.40
2013,08,24,08,24,15.50
2013,08,24,08,25,15.50
2013,08,24,08,26,15.50
2013,08,24,08,27,15.60
2013,08,24,08,28,15.60
2013,08,24,08,29,15.60
2013,08,24,08,30,15.60
2013,08,24,08,31,15.70
2013,08,24,08,32,15.70
2013,08,24,08,33,15.70
2013,08,24,08,34,15.70
2013,08,24,08,35,15.70
2013,08,24,08,36,15.70
2013,08,24,08,37,15.80
2013,08,24,08,38,15.80
2013,08,24,08,39,15.80
2013,08,24,08,40,15.80
2013,08,24,08,41,15.80
2013,08,24,08,42,15.90
2013,08,24,08,43,15.90
2013,08,24,08,44,15.90
2013,08,24,08,45,15.90
2013,08,24,08,46,16.00
2013,08,24,08,47,16.00
2013,08,24,08,48,16.00
2013,08,24,08,49,16.00
2013,08,24,08,50,16.00
2013,08,24,08,51,16.10
2013,08,24,08,52,16.10
2013,08,24,08,53,16.10
2013,08,24,08,54,16.20
2013,08,24,08,55,16.20
2013,08,24,08,56,16.20
2013,08,24,08,57,16.30
2013,08,24,08,58,16.30
2013,08,24,08,59,16.30
2013,08,24,09,00,16.40
2013,08,24,09,01,16.40
2013,08,24,09,02,16.40
2013,08,24,09,03,16.40
2013,08,24,09,04,16.50
2013,08,24,09,05,16.50
2013,08,24,09,06,16.50
2013,08,24,09,07,16.60
2013,08,24,09,08,16.60
2013,08,24,09,09,16.60
2013,08,24,09,10,16.60
2013,08,24,09,11,16.70
2013,08,24,09,12,16.70
2013,08,24,09,13,16.70
2013,08,24,09,14,16.70
2013,08,24,09,15,16.70
2013,08,24,09,16,16.70
2013,08,24,09,17,16.70
2013,08,24,09,18,16.60
2013,08,24,09,19,16.70
2013,08,24,09,20,16.70
2013,08,24,09,21,16.70
2013,08,24,09,22,16.70
2013,08,24,09,23,16.70
2013,08,24,09,24,16.70
2013,08,24,09,25,16.80
2013,08,24,09,26,16.80
2013,08,24,09,27,16.80
2013,08,24,09,28,16.80
2013,08,24,09,29,16.90
2013,08,24,09,30,16.90
2013,08,24,09,31,16.90
2013,08,24,09,32,16.90
2013,08,24,09,33,17.00
2013,08,24,09,34,17.00
2013,08,24,09,35,17.10
2013,08,24,09,36,17.10
2013,08,24,09,37,17.20
2013,08,24,09,38,17.20
2013,08,24,09,39,17.20
2013,08,24,09,40,17.30
2013,08,24,09,41,17.30
2013,08,24,09,42,17.30
2013,08,24,09,43,17.30
2013,08,24,09,44,17.30
2013,08,24,09,45,17.30
2013,08,24,09,46,17.30
2013,08,24,09,47,17.40
2013,08,24,09,48,17.40
2013,08,24,09,49,17.40
2013,08,24,09,50,17.50
2013,08,24,09,51,17.50
2013,08,24,09,52,17.50
2013,08,24,09,53,17.50
2013,08,24,09,54,17.60
2013,08,24,09,55,17.60
2013,08,24,09,56,17.60
2013,08,24,09,57,17.70
2013,08,24,09,58,17.70
2013,08,24,09,59,17.70
2013,08,24,10,00,17.70
2013,08,24,10,01,17.70
2013,08,24,10,02,17.70
2013,08,24,10,03,17.80
2013,08,24,10,04,17.80
2013,08,24,10,05,17.80
2013,08,24,10,06,17.90
2013,08,24,10,07,17.90
2013,08,24,10,08,18.00
2013,08,24,10,09,18.00
2013,08,24,10,10,18.00
2013,08,24,10,11,18.10
2013,08,24,10,12,18.20
2013,08,24,10,13,18.10
2013,08,24,10,14,18.10
2013,08,24,10,15,18.00
2013,08,24,10,16,18.00
2013,08,24,10,17,17.90
2013,08,24,10,18,17.90
2013,08,24,10,19,17.90
2013,08,24,10,20,17.90
2013,08,24,10,21,17.90
2013,08,24,10,22,18.00
2013,08,24,10,23,18.00
2013,08,24,10,24,18.00
2013,08,24,10,25,18.00
2013,08,24,10,26,18.00
2013,08,24,10,27,18.00
2013,08,24,10,28,18.10
2013,08,24,10,29,18.10
2013,08,24,10,30,18.10
2013,08,24,10,31,18.10
2013,08,24,10,32,18.20
2013,08,24,10,33,18.20
2013,08,24,10,34,18.30
2013,08,24,10,35,18.30
2013,08,24,10,36,18.40
2013,08,24,10,37,18.50
2013,08,24,10,38,18.60
2013,08,24,10,39,18.70
2013,08,24,10,40,18.70
2013,08,24,10,41,18.80
2013,08,24,10,42,18.80
2013,08,24,10,43,18.80
2013,08,24,10,44,18.80
2013,08,24,10,45,18.70
2013,08,24,10,46,18.70
2013,08,24,10,47,18.70
2013,08,24,10,48,18.80
2013,08,24,10,49,18.80
2013,08,24,10,50,18.90
2013,08,24,10,51,18.90
2013,08,24,10,52,19.00
2013,08,24,10,53,19.10
2013,08,24,10,54,19.20
2013,08,24,10,55,19.20
2013,08,24,10,56,19.20
2013,08,24,10,57,19.20
2013,08,24,10,58,19.30
2013,08,24,10,59,19.30
2013,08,24,11,00,19.30
2013,08,24,11,01,19.30
2013,08,24,11,02,19.30
2013,08,24,11,03,19.40
2013,08,24,11,04,19.40
2013,08,24,11,05,19.40
2013,08,24,11,06,19.40
2013,08,24,11,07,19.50
2013,08,24,11,08,19.60
2013,08,24,11,09,19.60
2013,08,24,11,10,19.60
2013,08,24,11,11,19.60
2013,08,24,11,12,19.50
2013,08,24,11,13,19.50
2013,08,24,11,14,19.50
2013,08,24,11,15,19.50
2013,08,24,11,16,19.60
2013,08,24,11,17,19.60
2013,08,24,11,18,19.70
2013,08,24,11,19,19.80
2013,08,24,11,20,20.00
2013,08,24,11,21,20.10
2013,08,24,11,22,20.20
2013,08,24,11,23,20.20
2013,08,24,11,24,20.30
2013,08,24,11,25,20.30
2013,08,24,11,26,20.30
2013,08,24,11,27,20.30
2013,08,24,11,28,20.30
2013,08,24,11,29,20.20
2013,08,24,11,30,20.10
2013,08,24,11,31,20.00
2013,08,24,11,32,20.00
2013,08,24,11,33,19.90
2013,08,24,11,34,19.90
2013,08,24,11,35,19.90
2013,08,24,11,36,19.80
2013,08,24,11,37,19.80
2013,08,24,11,38,19.90
2013,08,24,11,39,20.00
2013,08,24,11,40,20.00
2013,08,24,11,41,20.10
2013,08,24,11,42,20.20
2013,08,24,11,43,20.30
2013,08,24,11,44,20.40
2013,08,24,11,45,20.40
2013,08,24,11,46,20.40
2013,08,24,11,47,20.50
2013,08,24,11,48,20.60
2013,08,24,11,49,20.50
2013,08,24,11,50,20.50
2013,08,24,11,51,20.40
2013,08,24,11,52,20.40
2013,08,24,11,53,20.40
2013,08,24,11,54,20.30
2013,08,24,11,55,20.10
2013,08,24,11,56,20.00
2013,08,24,11,57,19.90
2013,08,24,11,58,19.80
2013,08,24,11,59,19.70
2013,08,24,12,00,19.70
2013,08,24,12,01,19.60
2013,08,24,12,02,19.60
2013,08,24,12,03,19.50
2013,08,24,12,04,19.50
2013,08,24,12,05,19.50
2013,08,24,12,06,19.40
2013,08,24,12,07,19.40
2013,08,24,12,08,19.40
2013,08,24,12,09,19.50
2013,08,24,12,10,19.50
2013,08,24,12,11,19.50
2013,08,24,12,12,19.60
2013,08,24,12,13,19.60
2013,08,24,12,14,19.60
2013,08,24,12,15,19.70
2013,08,24,12,16,19.70
2013,08,24,12,17,19.70
2013,08,24,12,18,19.70
2013,08,24,12,19,19.80
2013,08,24,12,20,19.80
2013,08,24,12,21,19.80
2013,08,24,12,22,19.80
2013,08,24,12,23,19.70
2013,08,24,12,24,19.70
2013,08,24,12,25,19.70
2013,08,24,12,26,19.70
2013,08,24,12,27,19.70
2013,08,24,12,28,19.70
2013,08,24,12,29,19.70
2013,08,24,12,30,19.70
2013,08,24,12,31,19.70
2013,08,24,12,32,19.70
2013,08,24,12,33,19.70
2013,08,24,12,34,19.70
2013,08,24,12,35,19.60
2013,08,24,12,36,19.60
2013,08,24,12,37,19.50
2013,08,24,12,38,19.50
2013,08,24,12,39,19.40
2013,08,24,12,40,19.40
2013,08,24,12,41,19.40
2013,08,24,12,42,19.30
2013,08,24,12,43,19.30
2013,08,24,12,44,19.30
2013,08,24,12,45,19.30
2013,08,24,12,46,19.30
2013,08,24,12,47,19.30
2013,08,24,12,48,19.20
2013,08,24,12,49,19.20
2013,08,24,12,50,19.20
2013,08,24,12,51,19.20
2013,08,24,12,52,19.20
2013,08,24,12,53,19.20
2013,08,24,12,54,19.30
2013,08,24,12,55,19.30
2013,08,24,12,56,19.40
2013,08,24,12,57,19.50
2013,08,24,12,58,19.50
2013,08,24,12,59,19.60
2013,08,24,13,00,19.70
2013,08,24,13,01,19.80
2013,08,24,13,02,19.80
2013,08,24,13,03,19.90
2013,08,24,13,04,20.00
2013,08,24,13,05,20.10
2013,08,24,13,06,20.10
2013,08,24,13,07,20.20
2013,08,24,13,08,20.20
2013,08,24,13,09,20.20
2013,08,24,13,10,20.20
2013,08,24,13,11,20.20
2013,08,24,13,12,20.20
2013,08,24,13,13,20.20
2013,08,24,13,14,20.20
2013,08,24,13,15,20.20
2013,08,24,13,16,20.20
2013,08,24,13,17,20.30
2013,08,24,13,18,20.40
2013,08,24,13,19,20.40
2013,08,24,13,20,20.40
2013,08,24,13,21,20.40
2013,08,24,13,22,20.40
2013,08,24,13,23,20.40
2013,08,24,13,24,20.40
2013,08,24,13,25,20.50
2013,08,24,13,26,20.50
2013,08,24,13,27,20.50
2013,08,24,13,28,20.60
2013,08,24,13,29,20.70
2013,08,24,13,30,20.70
2013,08,24,13,31,20.80
2013,08,24,13,32,20.80
2013,08,24,13,33,20.90
2013,08,24,13,34,20.90
2013,08,24,13,35,21.00
2013,08,24,13,36,21.00
2013,08,24,13,37,21.10
2013,08,24,13,38,21.10
2013,08,24,13,39,21.20
2013,08,24,13,40,21.20
2013,08,24,13,41,21.20
2013,08,24,13,42,21.20
2013,08,24,13,43,21.20
2013,08,24,13,44,21.10
2013,08,24,13,45,21.10
2013,08,24,13,46,21.10
2013,08,24,13,47,21.10
2013,08,24,13,48,21.10
2013,08,24,13,49,21.10
2013,08,24,13,50,21.10
2013,08,24,13,51,21.10
2013,08,24,13,52,21.10
2013,08,24,13,53,21.20
2013,08,24,13,54,21.20
2013,08,24,13,55,21.20
2013,08,24,13,56,21.20
2013,08,24,13,57,21.30
2013,08,24,13,58,21.40
2013,08,24,13,59,21.50
2013,08,24,14,00,21.60
2013,08,24,14,01,21.80
2013,08,24,14,02,21.80
2013,08,24,14,03,22.00
2013,08,24,14,04,22.10
2013,08,24,14,05,22.20
2013,08,24,14,06,22.20
2013,08,24,14,07,22.30
2013,08,24,14,08,22.30
2013,08,24,14,09,22.30
2013,08,24,14,10,22.30
2013,08,24,14,11,22.30
2013,08,24,14,12,22.20
2013,08,24,14,13,22.20
2013,08,24,14,14,22.20
2013,08,24,14,15,22.20
2013,08,24,14,16,22.10
2013,08,24,14,17,22.00
2013,08,24,14,18,21.90
2013,08,24,14,19,21.90
2013,08,24,14,20,21.90
2013,08,24,14,21,21.90
2013,08,24,14,22,21.80
2013,08,24,14,23,21.80
2013,08,24,14,24,21.80
2013,08,24,14,25,21.70
2013,08,24,14,26,21.70
2013,08,24,14,27,21.70
2013,08,24,14,28,21.70
2013,08,24,14,29,21.80
2013,08,24,14,30,21.90
2013,08,24,14,31,22.00
2013,08,24,14,32,22.10
2013,08,24,14,33,22.20
2013,08,24,14,34,22.30
2013,08,24,14,35,22.40
2013,08,24,14,36,22.50
2013,08,24,14,37,22.60
2013,08,24,14,38,22.50
2013,08,24,14,39,22.50
2013,08,24,14,40,22.60
2013,08,24,14,41,22.60
2013,08,24,14,42,22.60
2013,08,24,14,43,22.60
2013,08,24,14,44,22.60
2013,08,24,14,45,22.60
2013,08,24,14,46,22.60
2013,08,24,14,47,22.60
2013,08,24,14,48,22.60
2013,08,24,14,49,22.80
2013,08,24,14,50,22.90
2013,08,24,14,51,23.10
2013,08,24,14,52,23.20
2013,08,24,14,53,23.20
2013,08,24,14,54,23.10
2013,08,24,14,55,23.10
2013,08,24,14,56,23.00
2013,08,24,14,57,22.90
2013,08,24,14,58,22.80
2013,08,24,14,59,22.70
2013,08,24,15,00,22.60
2013,08,24,15,01,22.60
2013,08,24,15,02,22.70
2013,08,24,15,03,22.60
2013,08,24,15,04,22.70
2013,08,24,15,05,22.70
2013,08,24,15,06,22.60
2013,08,24,15,07,22.50
2013,08,24,15,08,22.40
2013,08,24,15,09,22.30
2013,08,24,15,10,22.20
2013,08,24,15,11,22.20
2013,08,24,15,12,22.20
2013,08,24,15,13,22.10
2013,08,24,15,14,22.10
2013,08,24,15,15,22.10
2013,08,24,15,16,22.10
2013,08,24,15,17,22.10
2013,08,24,15,18,22.00
2013,08,24,15,19,21.90
2013,08,24,15,20,21.80
2013,08,24,15,21,21.80
2013,08,24,15,22,21.80
2013,08,24,15,23,21.80
2013,08,24,15,24,21.80
2013,08,24,15,25,21.80
2013,08,24,15,26,21.70
2013,08,24,15,27,21.70
2013,08,24,15,28,21.70
2013,08,24,15,29,21.70
2013,08,24,15,30,21.80
2013,08,24,15,31,21.80
2013,08,24,15,32,21.80
2013,08,24,15,33,21.80
2013,08,24,15,34,21.80
2013,08,24,15,35,21.90
2013,08,24,15,36,22.00
2013,08,24,15,37,22.10
2013,08,24,15,38,22.10
2013,08,24,15,39,22.20
2013,08,24,15,40,22.30
2013,08,24,15,41,22.30
2013,08,24,15,42,22.30
2013,08,24,15,43,22.20
2013,08,24,15,44,22.00
2013,08,24,15,45,21.90
2013,08,24,15,46,21.80
2013,08,24,15,47,21.80
2013,08,24,15,48,21.70
2013,08,24,15,49,21.60
2013,08,24,15,50,21.60
2013,08,24,15,51,21.50
2013,08,24,15,52,21.50
2013,08,24,15,53,21.50
2013,08,24,15,54,21.50
2013,08,24,15,55,21.50
2013,08,24,15,56,21.60
2013,08,24,15,57,21.60
2013,08,24,15,58,21.60
2013,08,24,15,59,21.70
2013,08,24,16,00,21.60
2013,08,24,16,01,21.60
2013,08,24,16,02,21.60
2013,08,24,16,03,21.50
2013,08,24,16,04,21.40
2013,08,24,16,05,21.40
2013,08,24,16,06,21.30
2013,08,24,16,07,21.30
2013,08,24,16,08,21.30
2013,08,24,16,09,21.20
2013,08,24,16,10,21.00
2013,08,24,16,11,20.90
2013,08,24,16,12,20.80
2013,08,24,16,13,20.60
2013,08,24,16,14,20.50
2013,08,24,16,15,20.40
2013,08,24,16,16,20.40
2013,08,24,16,17,20.50
2013,08,24,16,18,20.50
2013,08,24,16,19,20.50
2013,08,24,16,20,20.50
2013,08,24,16,21,20.60
2013,08,24,16,22,20.60
2013,08,24,16,23,20.60
2013,08,24,16,24,20.60
2013,08,24,16,25,20.60
2013,08,24,16,26,20.60
2013,08,24,16,27,20.60
2013,08,24,16,28,20.50
2013,08,24,16,29,20.40
2013,08,24,16,30,20.40
2013,08,24,16,31,20.30
2013,08,24,16,32,20.20
2013,08,24,16,33,20.20
2013,08,24,16,34,20.20
2013,08,24,16,35,20.20
2013,08,24,16,36,20.20
2013,08,24,16,37,20.20
2013,08,24,16,38,20.30
2013,08,24,16,39,20.30
2013,08,24,16,40,20.40
2013,08,24,16,41,20.40
2013,08,24,16,42,20.40
2013,08,24,16,43,20.40
2013,08,24,16,44,20.40
2013,08,24,16,45,20.40
2013,08,24,16,46,20.40
2013,08,24,16,47,20.40
2013,08,24,16,48,20.40
2013,08,24,16,49,20.40
2013,08,24,16,50,20.30
2013,08,24,16,51,20.30
2013,08,24,16,52,20.30
2013,08,24,16,53,20.30
2013,08,24,16,54,20.30
2013,08,24,16,55,20.30
2013,08,24,16,56,20.30
2013,08,24,16,57,20.30
2013,08,24,16,58,20.30
2013,08,24,16,59,20.30
2013,08,24,17,00,20.30
2013,08,24,17,01,20.30
2013,08,24,17,02,20.30
2013,08,24,17,03,20.20
2013,08,24,17,04,20.10
2013,08,24,17,05,20.10
2013,08,24,17,06,20.00
2013,08,24,17,07,20.00
2013,08,24,17,08,19.90
2013,08,24,17,09,19.90
2013,08,24,17,10,19.80
2013,08,24,17,11,19.80
2013,08,24,17,12,19.80
2013,08,24,17,13,19.80
2013,08,24,17,14,19.80
2013,08,24,17,15,19.80
2013,08,24,17,16,19.80
2013,08,24,17,17,19.70
2013,08,24,17,18,19.70
2013,08,24,17,19,19.70